Flag for U.S.A. Weather past 2 weeks in Cape Canaveral, Florida, U.S.A.

Now
73 °F

Clear.


Feels Like: 74 °F
Forecast: 73 / 85 °F
Wind: 5 mph from Northeast

Location: Cape Kennedy

Current Time: Apr 24, 2015 at 10:11:02 PM

Latest Report: Apr 24, 2015 at 9:58 PM


Visibility: 10 mi

Pressure: 29.99 "Hg

Humidity: 78%

Dew point: 66 °F

Location of Cape CanaveralLocation

Historic Weather in Cape Canaveral — Graph

°F

Cape Canaveral temperature yesterday

Maximum temperature yesterday: 81 °F (at 5:58 PM)
Minimum temperature yesterday: 66 °F (at 12:58 AM)
Average temperature yesterday: 75 °F

Past Weeks' High & Low Weather Summary

 TemperatureHumidityPressure
High89 °F (Apr 18, 1:58 PM)100% (Apr 13, 5:58 AM)30.19 "Hg (Apr 13, 5:58 AM)
Low66 °F (Apr 20, 8:58 PM)50% (Apr 22, 2:58 PM)29.84 "Hg (Apr 19, 5:58 PM)
Average76 °F83%30.02 "Hg
* Reported Apr 9 8:58 PM — Apr 24 8:58 PM, Cape Canaveral, Weather by CustomWeather, © 2015

Note: Actual official high and low records may vary slightly from our data, if they occured in-between our weather recording intervals... More about our weather records

Advertising

Cape Canaveral weather history for previous 24 hours

 ConditionsComfort  
Time TempWeatherWind HumidityBarometerVisibility
8:58 PM
Fri, Apr 24
72 °FClear.5 mph80%29.99 "Hg10 mi
7:58 PM74 °FSunny.5 mph74%29.97 "Hg3 mi
6:58 PM77 °FSunny.5 mph71%29.97 "Hg10 mi
5:58 PM79 °FSunny.10 mph67%29.97 "Hg10 mi
4:58 PM80 °FSunny.13 mph65%29.98 "Hg10 mi
3:58 PM81 °FSunny.13 mph64%29.97 "Hg10 mi
2:58 PM81 °FSunny.13 mph65%29.98 "Hg10 mi
1:58 PM80 °FPassing clouds.15 mph64%29.99 "Hg10 mi
1:03 PM81 °FScattered clouds.12 mph70%29.97 "Hg10 mi
12:58 PM81 °FBroken clouds.12 mph71%29.98 "Hg10 mi
12:03 PM79 °FPartly sunny.12 mph74%30.00 "Hg10 mi
11:58 AM80 °FScattered clouds.13 mph72%30.01 "Hg10 mi
10:58 AM79 °FPassing clouds.9 mph74%30.00 "Hg10 mi
9:58 AM79 °FSunny.7 mph70%29.98 "Hg10 mi
8:58 AM76 °FSunny.12 mph85%29.96 "Hg10 mi
7:58 AM74 °FSunny.10 mph94%29.95 "Hg10 mi
6:58 AM73 °FClear.6 mph94%29.93 "Hg10 mi
5:58 AM73 °FClear.5 mph93%29.92 "Hg10 mi
4:58 AM73 °FClear.7 mph91%29.91 "Hg10 mi
3:58 AM74 °FClear.6 mph91%29.91 "Hg10 mi
2:58 AM74 °FClear.6 mph91%29.92 "Hg10 mi
1:58 AM75 °FPassing clouds.8 mph88%29.92 "Hg10 mi
12:58 AM75 °FClear.8 mph91%29.93 "Hg10 mi
11:58 PM
Thu, Apr 23
75 °FClear.6 mph91%29.94 "Hg10 mi
10:58 PM76 °FClear.6 mph90%29.93 "Hg10 mi
Weather by CustomWeather, © 2015

See weather overviewHow to use our weather pages